Miami, FL

6:28 AM EST en Diciembre 11, 2017 (GMT -0500)
Miami International

Tiempo Historia de KMIA - Agosto, 2017

Change the Weather History Date:

Domingo, Agosto 13, 2017

  Actual Average Record
Temperature  
Temperatura media 88 ° F 84 ° F  
Temperatura máxima 95 ° F 91 ° F 96 ° F (2006)
Temperatura mínima 80 ° F 78 ° F 69 ° F (1942)
Degree Days  
Grados día de calefacción 0 0  
Month to date heating degree days 0 0  
Since 1 June heating degree days 0 0  
Since 1 July heating degree days 0 0  
Cooling Degree Days 23 19  
Month to date cooling degree days 280 255  
Year to date cooling degree days 3202 2735  
Since 1 June cooling degree days 1498 1379  
Growing Degree Days 38 (Base 50)    
Moisture  
Punto de rocío 75 ° F    
Average Humidity 71    
Maximum Humidity 85    
Minimum Humidity 56    
Precipitación  
Precipitación 0.00 pul 0.29 pul 2.95 pul (1928)
Month to date precipitation 1.91 3.44  
Year to date precipitation 43.81 34.96  
Nieve  
Nieve 0.00 pul - - ()
Month to date snowfall 0.0  
Since 1 June snowfall 0.0  
Since 1 July snowfall 0.0  
Grosos de nieve 0.00 pul    
Presión al nivel del mar  
Presión al nivel del mar 29.99 pul    
Viento  
Velocidad del viento 5 mph (ESE)    
Velocidad máxima del viento 15 mph    
Max Gust Speed 22 mph    
Visibilidad 10 Millas    
Eventos Tormenta    
T = Trace of Precipitation, MM = Missing Value Source: NWS Daily Summary

Daily Weather History Graph

Daily Weather History Graph

Search for Another Location

Airport or City:

Trip Planner

Search our weather history database for the weather conditions in past years. The results will help you decide how hot, cold, wet, or windy it might be!

Date:

Astronomía

Aug. 13, 2017 Salida Puesta
Hora real 6:53 AM EDT 7:58 PM EDT
Crepúsculo civil 6:29 AM EDT 8:22 PM EDT
Crepúsculo náutico 6:00 AM EDT 8:50 PM EDT
Crepúsculo astronómico 5:31 AM EDT 9:20 PM EDT
Luna Sin salida de luna 12:17 PM EDT (8/13)
Horas de luz 13h 53m
Horas de luz
13h 04m
Gibosa menguante, 65% of the Moon is Illuminated
Ago 13
Gibosa menguante
Ago 14
Cuarto menguante
Ago 21
Nueva
Ago 29
Cuarto creciente
Sep 6
Luna llena

Hourly Weather History & Observations

Hora (EDT) Temp. Índice de calor Punto de rocío Humedad Presión Visibilidad Wind Dir Velocidad del viento Velocidad de ráfagas Precip Eventos Condiciones
12:53 AM 82.9 ° F 90.2 ° F 75.0 ° F 77% 30.01 pul 10.0 mi Sin viento Sin viento - N/A   Nubes dispersas
1:53 AM 82.9 ° F 90.8 ° F 75.9 ° F 79% 29.99 pul 10.0 mi NNE 3.5 mph - N/A   Parcialmente nublado
2:53 AM 82.0 ° F 87.9 ° F 73.9 ° F 76% 29.97 pul 10.0 mi Norte 3.5 mph - N/A   Parcialmente nublado
3:53 AM 82.9 ° F 90.2 ° F 75.0 ° F 77% 29.97 pul 10.0 mi Norte 3.5 mph - N/A   Parcialmente nublado
4:53 AM 82.0 ° F 88.6 ° F 75.0 ° F 79% 29.96 pul 10.0 mi Sin viento Sin viento - N/A   Parcialmente nublado
5:53 AM 80.1 ° F 84.5 ° F 73.9 ° F 81% 29.97 pul 10.0 mi Sin viento Sin viento - N/A   Parcialmente nublado
6:53 AM 80.1 ° F 85.1 ° F 75.0 ° F 85% 29.97 pul 10.0 mi Sin viento Sin viento - N/A   Parcialmente nublado
7:53 AM 84.0 ° F 92.6 ° F 75.9 ° F 76% 30.00 pul 10.0 mi Sin viento Sin viento - N/A   Parcialmente nublado
8:53 AM 87.1 ° F 98.8 ° F 77.0 ° F 72% 30.01 pul 10.0 mi Sin viento Sin viento - N/A   Parcialmente nublado
9:53 AM 89.1 ° F 101.4 ° F 77.0 ° F 67% 30.02 pul 10.0 mi Este 4.6 mph - N/A   Nubes dispersas
10:53 AM 91.0 ° F 101.6 ° F 75.0 ° F 59% 30.02 pul 10.0 mi Variable 4.6 mph - N/A   Nubes dispersas
11:53 AM 91.9 ° F 101.3 ° F 73.9 ° F 55% 30.02 pul 10.0 mi SSE 3.5 mph - N/A   Nubes dispersas
12:53 PM 91.0 ° F 99.3 ° F 73.0 ° F 55% 30.01 pul 10.0 mi Norte 3.5 mph - N/A   Muy nublado
1:53 PM 91.9 ° F 101.3 ° F 73.9 ° F 55% 30.00 pul 10.0 mi SE 9.2 mph - N/A   Muy nublado
2:13 PM 93.0 ° F 105.3 ° F 75.9 ° F 57% 29.99 pul 10.0 mi SE 9.2 mph - N/A Tormenta Muy nublado
2:28 PM 93.0 ° F 105.3 ° F 75.9 ° F 57% 29.99 pul 10.0 mi ESE 10.4 mph - N/A   Muy nublado
2:36 PM 91.9 ° F 103.2 ° F 75.0 ° F 58% 29.98 pul 10.0 mi ESE 10.4 mph - N/A Tormenta Tormenta
2:53 PM 91.0 ° F 99.3 ° F 73.0 ° F 55% 29.99 pul 10.0 mi ESE 12.7 mph - N/A Tormenta Tormenta
3:09 PM 91.0 ° F 100.4 ° F 73.9 ° F 57% 29.97 pul 10.0 mi Este 13.8 mph - N/A   Muy nublado
3:53 PM 91.9 ° F 101.3 ° F 73.9 ° F 55% 29.97 pul 10.0 mi Este 10.4 mph - N/A   Nubes dispersas
4:53 PM 90.0 ° F 99.0 ° F 73.9 ° F 59% 29.97 pul 10.0 mi SE 9.2 mph - N/A   Nubes dispersas
5:53 PM 90.0 ° F 100.2 ° F 75.0 ° F 61% 29.97 pul 10.0 mi SE 12.7 mph - N/A   Nubes dispersas
6:53 PM 89.1 ° F 99.1 ° F 75.0 ° F 63% 29.97 pul 10.0 mi SE 10.4 mph - N/A   Nubes dispersas
7:53 PM 87.1 ° F 97.3 ° F 75.9 ° F 69% 30.00 pul 10.0 mi SSE 10.4 mph - N/A   Nubes dispersas
8:53 PM 87.1 ° F 97.3 ° F 75.9 ° F 69% 30.02 pul 10.0 mi SSE 9.2 mph - N/A   Nubes dispersas
9:53 PM 86.0 ° F 96.0 ° F 75.9 ° F 72% 30.02 pul 10.0 mi SSO 5.8 mph - N/A   Parcialmente nublado
10:53 PM 84.9 ° F 92.1 ° F 73.9 ° F 69% 30.02 pul 10.0 mi Sin viento Sin viento - N/A   Despejado
11:53 PM 84.9 ° F 92.1 ° F 73.9 ° F 69% 30.04 pul 10.0 mi Oeste 3.5 mph - N/A   Parcialmente nublado